Home   Weather   Lillestrøm   Past weeks

Flag for Norway Past Weather in Lillestrøm, Norway — Yesterday and Last 2 Weeks

Now
34 °F

Drizzle. Low clouds.


Feels Like: 34 °F
Forecast: 25 / 32 °F
Wind: 1 mph from West

Location: Oslo-Blindern

Current Time: Jan 22, 2017 at 1:38:30 pm

Latest Report: Jan 22, 2017 at 1:00 pm


Visibility: 1 mi

Pressure: 30.20 "Hg

Humidity: 99%

Dew Point: 34 °F

Location of LillestrømLocation

Past Weather in Lillestrøm — Graph

°F

Lillestrøm Temperature Yesterday

Maximum temperature yesterday: 41 °F (at 1:00 pm)
Minimum temperature yesterday: 29 °F (at 9:00 pm)
Average temperature yesterday: 34 °F

High & Low Weather Summary for the Past Weeks

 TemperatureHumidityPressure
High42 °F (Jan 11, 3:00 am)100% (Jan 9, 1:00 pm)30.45 "Hg (Jan 9, 1:00 pm)
Low17 °F (Jan 16, 1:00 am)53% (Jan 15, 3:00 pm)28.50 "Hg (Jan 11, 4:00 pm)
Average30 °F89%29.88 "Hg
* Reported Jan 7 12:00 pm — Jan 22 12:00 pm, Lillestrøm, Weather by CustomWeather, © 2017

Note: Actual official high and low records may vary slightly from our data, if they occured in-between our weather recording intervals... More about our weather records

Advertising

Lillestrøm Weather History for the Previous 24 Hours

Scroll right to see more
 ConditionsComfort  
Time TempWeatherWind HumidityBarometerVisibility
12:00 pm
Sun, Jan 22
33 °FFog.3 mph100%30.22 "Hg2 mi
11:00 am33 °FFog.2 mph100%30.24 "Hg3 mi
10:00 am32 °FFog.2 mph99%30.25 "Hg1 mi
9:00 am32 °FDuststorm.1 mph100%30.25 "Hg1 mi
8:00 am32 °FFog.1 mph100%30.26 "Hg1 mi
7:00 am32 °FChilly.2 mph100%30.26 "Hg2 mi
6:00 am32 °FFog.1 mph99%30.27 "Hg1 mi
5:00 am32 °FChilly.2 mph99%30.29 "Hg1 mi
4:00 am31 °FFreezing rain. Overcast.1 mph99%30.30 "Hg1 mi
3:00 am31 °FSnow flurries. Overcast.1 mph100%30.32 "Hg0 mi
2:00 am30 °FSnow flurries. Overcast.1 mph99%30.34 "Hg0 mi
1:00 am29 °FSnow flurries. Overcast.1 mph99%30.35 "Hg0 mi
12:00 am28 °FDuststorm.2 mph99%30.35 "Hg1 mi
11:00 pm
Sat, Jan 21
30 °FChilly.1 mph95%30.34 "Hg31 mi
10:00 pm29 °FFog.1 mph97%30.35 "Hg19 mi
9:00 pm29 °FChilly.No wind96%30.36 "Hg28 mi
8:00 pm30 °FChilly.No wind96%30.36 "HgN/A
7:00 pm31 °FFog.2 mph93%30.36 "Hg16 mi
6:00 pm33 °FChilly.1 mph95%30.37 "Hg31 mi
5:00 pm34 °FChilly.1 mph92%30.37 "Hg25 mi
4:00 pm37 °FPartly sunny.2 mph85%30.36 "Hg25 mi
3:00 pm37 °FChilly.No wind82%30.36 "Hg19 mi
2:00 pm38 °FChilly.1 mph81%30.36 "Hg19 mi
1:00 pm41 °FPartly sunny.No wind78%30.36 "Hg16 mi
Weather by CustomWeather, © 2017

See weather overviewHow to use our weather pages